Date String (YYYY-MM-DD hh:mm:ss) UTC,Instrument flags,absolute air pressure of the measurement (hPa),sample flow rate (lpm),inlet stack bypass flow (lpm),air temperature of the measurement (°C),ambient temperature measured by the external sensor (°C),aerosol sample conditioner tube jacket temperature (°C),OPC LED temperature (°C),internal box temperature (°C),relative humidity of the measurement (%),span deviation,mass concentration of particles derived from Lorenz-Mie calculation of OPC scattering (μg/m³),mass concentration of particles derived from Lorenz-Mie calculation of OPC scattering (μg/m³),mass concentration of particles derived from Lorenz-Mie calculation of OPC scattering (μg/m³)
DateTimeUTC,F1_M11,P_M11,Q1_M11,Q2_M11,T1_M11,T2_M11,T3_M11,T4_M11,T5_M11,U1_M11,ZSPAN_M11,X2_M11,X0_M11,X1_M11
2024-02-14 07:00:00,SystemResetWarning,0824.7,5.00,000.00,021.0,020.3,000.0,029.6,022.7,13.5,0000.0,0004.79,0010.34,0004.10
2024-02-14 07:01:00,SystemResetWarning,0824.7,5.00,000.00,020.9,020.3,000.0,029.6,022.7,13.6,0000.0,0004.80,0010.82,0004.13
2024-02-14 07:02:00,SystemResetWarning,0824.7,5.00,000.00,020.9,020.3,000.0,029.6,022.7,13.7,0000.0,0004.85,0011.08,0004.16
2024-02-14 07:03:00,SystemResetWarning,0824.7,5.00,000.00,020.9,020.2,000.0,029.6,022.6,13.8,0000.0,0004.89,0011.80,0004.21
2024-02-14 07:04:00,SystemResetWarning,0824.7,5.00,000.00,020.9,020.2,000.0,029.5,022.6,13.8,0000.0,0005.03,0012.33,0004.25
2024-02-14 07:05:00,SystemResetWarning,0824.7,5.00,000.00,020.9,020.2,000.0,029.5,022.6,13.8,0000.0,0005.10,0012.70,0004.30
2024-02-14 07:06:00,SystemResetWarning,0824.7,5.00,000.00,020.9,020.2,000.0,029.5,022.6,13.8,0000.0,0005.18,0012.90,0004.36
2024-02-14 07:07:00,SystemResetWarning,0824.7,5.00,000.00,020.8,020.2,000.0,029.5,022.6,13.8,0000.0,0005.24,0013.40,0004.38
2024-02-14 07:08:00,SystemResetWarning,0824.7,5.00,000.00,020.8,020.2,000.0,029.5,022.6,13.9,0000.0,0005.27,0014.03,0004.40
2024-02-14 07:09:00,SystemResetWarning,0824.7,5.01,000.00,020.8,020.2,000.0,029.5,022.6,13.9,0000.0,0005.30,0014.30,0004.40
2024-02-14 07:10:00,SystemResetWarning,0824.7,5.00,000.00,020.8,020.2,000.0,029.4,022.5,13.9,0000.0,0005.36,0015.23,0004.40
2024-02-14 07:11:00,SystemResetWarning,0824.7,5.00,000.00,020.8,020.1,000.0,029.4,022.5,13.8,0000.0,0005.35,0015.31,0004.38
2024-02-14 07:12:00,SystemResetWarning,0824.7,5.01,000.00,020.8,020.1,000.0,029.4,022.5,13.8,0000.0,0005.38,0015.14,0004.37
2024-02-14 07:13:00,SystemResetWarning,0824.7,5.00,000.00,020.8,020.1,000.0,029.4,022.5,13.8,0000.0,0005.40,0014.68,0004.35
2024-02-14 07:14:00,SystemResetWarning,0824.7,5.00,000.00,020.7,020.1,000.0,029.4,022.5,13.8,0000.0,0005.37,0014.41,0004.34
2024-02-14 07:15:00,SystemResetWarning,0824.6,5.00,000.00,020.7,020.1,000.0,029.4,022.5,13.7,0000.0,0005.30,0013.98,0004.34
2024-02-14 07:16:00,SystemResetWarning,0824.4,5.00,000.00,020.7,020.1,000.0,029.4,022.5,13.7,0000.0,0005.27,0014.52,0004.34
2024-02-14 07:17:00,SystemResetWarning,0824.4,5.00,000.00,020.7,020.1,000.0,029.4,022.6,13.7,0000.0,0005.26,0014.52,0004.33
2024-02-14 07:18:00,SystemResetWarning,0824.5,5.00,000.00,020.7,020.1,000.0,029.4,022.6,13.7,0000.0,0005.26,0014.08,0004.35
2024-02-14 07:19:00,SystemResetWarning,0824.6,5.00,000.00,020.7,020.2,000.0,029.3,022.6,13.7,0000.0,0005.28,0013.26,0004.37
2024-02-14 07:20:00,SystemResetWarning,0824.7,5.00,000.00,020.7,020.2,000.0,029.3,022.6,13.7,0000.0,0005.20,0013.15,0004.38
2024-02-14 07:21:00,SystemResetWarning,0824.7,5.00,000.00,020.7,020.2,000.0,029.3,022.6,13.7,0000.0,0005.19,0013.51,0004.39
2024-02-14 07:22:00,SystemResetWarning,0824.5,5.00,000.00,020.7,020.2,000.0,029.3,022.6,13.7,0000.0,0005.22,0014.07,0004.42
2024-02-14 07:23:00,SystemResetWarning,0824.6,5.01,000.00,020.7,020.1,000.0,029.3,022.5,13.7,0000.0,0005.24,0014.61,0004.46
2024-02-14 07:24:00,SystemResetWarning,0824.7,5.00,000.00,020.7,020.1,000.0,029.3,022.5,13.7,0000.0,0005.28,0016.04,0004.50
2024-02-14 07:25:00,SystemResetWarning,0824.5,5.00,000.00,020.7,020.1,000.0,029.3,022.5,13.7,0000.0,0005.37,0016.70,0004.56
2024-02-14 07:26:00,SystemResetWarning,0824.4,5.00,000.00,020.7,020.1,000.0,029.3,022.5,13.7,0000.0,0005.42,0016.66,0004.59
2024-02-14 07:27:00,SystemResetWarning,0824.3,5.00,000.00,020.7,020.1,000.0,029.3,022.5,13.8,0000.0,0005.44,0016.00,0004.63
2024-02-14 07:28:00,SystemResetWarning,0824.3,5.00,000.00,020.7,020.0,000.0,029.3,022.4,13.8,0000.0,0005.44,0015.20,0004.67
2024-02-14 07:29:00,SystemResetWarning,0824.2,5.00,000.00,020.6,020.0,000.0,029.2,022.3,13.8,0000.0,0005.45,0015.24,0004.70
2024-02-14 07:30:00,SystemResetWarning,0824.3,5.00,000.00,020.6,019.9,000.0,029.2,022.3,13.8,0000.0,0005.44,0015.20,0004.71
2024-02-14 07:31:00,SystemResetWarning,0824.4,5.00,000.00,020.6,019.9,000.0,029.2,022.3,13.8,0000.0,0005.48,0014.98,0004.72
2024-02-14 07:32:00,SystemResetWarning,0824.4,5.01,000.00,020.5,019.9,000.0,029.2,022.3,13.9,0000.0,0005.49,0013.65,0004.75
2024-02-14 07:33:00,SystemResetWarning,0824.4,5.00,000.00,020.5,019.9,000.0,029.2,022.3,13.9,0000.0,0005.51,0013.00,0004.79
2024-02-14 07:34:00,SystemResetWarning,0824.5,5.00,000.00,020.5,019.9,000.0,029.1,022.3,13.9,0000.0,0005.56,0013.07,0004.82
2024-02-14 07:35:00,SystemResetWarning,0824.5,5.00,000.00,020.5,019.9,000.0,029.1,022.3,14.0,0000.0,0005.59,0012.07,0004.85
2024-02-14 07:36:00,SystemResetWarning,0824.4,5.00,000.00,020.5,019.9,000.0,029.1,022.3,13.9,0000.0,0005.57,0010.73,0004.87
2024-02-14 07:37:00,SystemResetWarning,0824.4,5.00,000.00,020.5,019.9,000.0,029.1,022.3,13.9,0000.0,0005.54,0010.47,0004.88
2024-02-14 07:38:00,SystemResetWarning,0824.4,5.00,000.00,020.5,019.9,000.0,029.1,022.3,13.9,0000.0,0005.53,0010.54,0004.90
2024-02-14 07:39:00,SystemResetWarning,0824.4,5.00,000.00,020.5,019.8,000.0,029.1,022.3,13.9,0000.0,0005.52,0010.53,0004.89
2024-02-14 07:40:00,SystemResetWarning,0824.3,5.00,000.00,020.5,019.8,000.0,029.1,022.2,14.0,0000.0,0005.54,0010.67,0004.91
2024-02-14 07:41:00,SystemResetWarning,0824.4,5.01,000.00,020.4,019.8,000.0,029.1,022.2,14.0,0000.0,0005.57,0010.84,0004.93
2024-02-14 07:42:00,SystemResetWarning,0824.4,5.00,000.00,020.4,019.8,000.0,029.1,022.3,14.0,0000.0,0005.62,0010.92,0004.97
2024-02-14 07:43:00,SystemResetWarning,0824.4,4.99,000.00,020.4,019.8,000.0,029.1,022.3,14.0,0000.0,0005.65,0010.99,0004.99
2024-02-14 07:44:00,SystemResetWarning,0824.3,5.00,000.00,020.4,019.8,000.0,029.0,022.3,14.0,0000.0,0005.65,0010.77,0005.02
2024-02-14 07:45:00,SystemResetWarning,0824.3,5.00,000.00,020.4,019.8,000.0,029.0,022.3,14.0,0000.0,0005.66,0010.54,0005.03
2024-02-14 07:46:00,SystemResetWarning,0824.2,5.00,000.00,020.4,019.8,000.0,029.0,022.2,14.0,0000.0,0005.64,0010.22,0005.04
2024-02-14 07:47:00,SystemResetWarning,0824.1,5.00,000.00,020.4,019.8,000.0,029.0,022.2,14.0,0000.0,0005.64,0010.46,0005.05
2024-02-14 07:48:00,SystemResetWarning,0824.2,5.00,000.00,020.4,019.8,000.0,029.0,022.2,14.1,0000.0,0005.70,0010.96,0005.06
2024-02-14 07:49:00,SystemResetWarning,0824.1,5.00,000.00,020.4,019.8,000.0,029.0,022.2,14.1,0000.0,0005.79,0011.72,0005.09
2024-02-14 07:50:00,SystemResetWarning,0824.1,5.00,000.00,020.4,019.7,000.0,029.0,022.1,14.1,0000.0,0005.85,0011.83,0005.12
2024-02-14 07:51:00,SystemResetWarning,0824.0,5.00,000.00,020.3,019.7,000.0,029.0,022.1,14.2,0000.0,0005.87,0011.95,0005.14
2024-02-14 07:52:00,SystemResetWarning,0824.0,5.00,000.00,020.3,019.7,000.0,029.0,022.1,14.2,0000.0,0005.92,0012.30,0005.16
2024-02-14 07:53:00,SystemResetWarning,0824.0,5.00,000.00,020.3,019.7,000.0,028.9,022.1,14.2,0000.0,0005.95,0012.57,0005.17
2024-02-14 07:54:00,SystemResetWarning,0824.1,5.01,000.00,020.3,019.6,000.0,028.9,022.0,14.2,0000.0,0006.01,0012.73,0005.20
2024-02-14 07:55:00,SystemResetWarning,0824.2,5.01,000.00,020.3,019.6,000.0,028.9,022.0,14.2,0000.0,0006.06,0013.02,0005.22
2024-02-14 07:56:00,SystemResetWarning,0824.2,5.00,000.00,020.2,019.6,000.0,028.9,022.0,14.2,0000.0,0006.05,0013.21,0005.23
2024-02-14 07:57:00,SystemResetWarning,0824.1,5.00,000.00,020.2,019.6,000.0,028.9,022.0,14.2,0000.0,0006.08,0013.62,0005.26
2024-02-14 07:58:00,SystemResetWarning,0824.0,5.00,000.00,020.2,019.5,000.0,028.8,022.0,14.3,0000.0,0006.10,0013.55,0005.30
2024-02-14 07:59:00,SystemResetWarning,0824.0,5.00,000.00,020.2,019.5,000.0,028.8,022.0,14.3,0000.0,0006.09,0013.00,0005.32
